Date String (YYYY-MM-DD hh:mm:ss) UTC,Instrument flags,Ambient pressure (hPa),Sample flow (lpm),Bypass flow (lpm),Sample temperature (°C),Ambient temperature (°C),ASC tube jacket temperature (°C),LED temperature (°C),Box temperature (°C),Sample RH (%),Span deviation,Mass concentration (μg/m³),Mass concentration (μg/m³),Mass concentration (μg/m³)
DateTimeUTC,F1_M11,P_M11,Q1_M11,Q2_M11,T1_M11,T2_M11,T3_M11,T4_M11,T5_M11,U1_M11,ZSPAN_M11,X2_M11,X0_M11,X1_M11
2022-04-30 05:00:00,,0823.6,5.00,0.00,23.3,22.5,00.0,32.1,25.1,12.4,0000.0,0001.85,0005.45,0001.07
2022-04-30 05:01:00,,0823.6,4.99,0.00,23.3,22.5,00.0,32.1,25.1,12.3,0000.0,0001.78,0005.40,0001.06
2022-04-30 05:02:00,,0823.6,4.99,0.00,23.3,22.5,00.0,32.2,25.1,12.4,0000.0,0001.78,0005.35,0001.05
2022-04-30 05:03:00,,0823.6,5.00,0.00,23.3,22.5,00.0,32.2,25.1,12.4,0000.0,0001.83,0005.40,0001.05
2022-04-30 05:04:00,,0823.7,5.01,0.00,23.3,22.5,00.0,32.2,25.1,12.4,0000.0,0001.86,0006.13,0001.04
2022-04-30 05:05:00,,0823.7,5.00,0.00,23.3,22.5,00.0,32.2,25.1,12.4,0000.0,0001.85,0006.12,0001.03
2022-04-30 05:06:00,,0823.6,5.00,0.00,23.3,22.5,00.0,32.2,25.2,12.4,0000.0,0001.80,0005.78,0001.02
2022-04-30 05:07:00,,0823.6,5.00,0.00,23.3,22.5,00.0,32.2,25.2,12.4,0000.0,0001.81,0005.46,0001.03
2022-04-30 05:08:00,,0823.7,5.00,0.00,23.4,22.6,00.0,32.2,25.1,12.4,0000.0,0001.87,0005.68,0001.04
2022-04-30 05:09:00,,0823.6,5.01,0.00,23.4,22.6,00.0,32.2,25.1,12.3,0000.0,0001.91,0005.56,0001.03
2022-04-30 05:10:00,,0823.6,5.01,0.00,23.4,22.6,00.0,32.2,25.1,12.3,0000.0,0001.91,0005.59,0001.04
2022-04-30 05:11:00,,0823.6,5.00,0.00,23.4,22.6,00.0,32.2,25.2,12.3,0000.0,0001.93,0006.62,0001.05
2022-04-30 05:12:00,,0823.7,5.00,0.00,23.4,22.6,00.0,32.3,25.2,12.3,0000.0,0001.90,0006.60,0001.05
2022-04-30 05:13:00,,0823.7,4.99,0.00,23.4,22.6,00.0,32.3,25.2,12.3,0000.0,0001.93,0006.73,0001.05
2022-04-30 05:14:00,,0823.7,5.01,0.00,23.4,22.6,00.0,32.3,25.2,12.3,0000.0,0001.93,0006.91,0001.04
2022-04-30 05:15:00,,0823.7,5.00,0.00,23.4,22.6,00.0,32.3,25.2,12.3,0000.0,0001.87,0006.20,0001.04
2022-04-30 05:16:00,,0823.7,5.00,0.00,23.4,22.6,00.0,32.3,25.2,12.3,0000.0,0001.94,0006.31,0001.06
2022-04-30 05:17:00,,0823.7,5.01,0.00,23.4,22.6,00.0,32.3,25.2,12.3,0000.0,0001.99,0006.54,0001.06
2022-04-30 05:18:00,,0823.7,5.00,0.00,23.4,22.6,00.0,32.3,25.2,12.3,0000.0,0001.97,0007.19,0001.05
2022-04-30 05:19:00,,0823.7,4.99,0.00,23.4,22.6,00.0,32.3,25.3,12.2,0000.0,0001.98,0007.60,0001.04
2022-04-30 05:20:00,,0823.7,5.00,0.00,23.5,22.7,00.0,32.3,25.3,12.2,0000.0,0002.04,0007.83,0001.04
2022-04-30 05:21:00,,0823.8,4.99,0.00,23.5,22.7,00.0,32.3,25.3,12.2,0000.0,0001.98,0007.59,0001.03
2022-04-30 05:22:00,,0823.7,5.00,0.00,23.5,22.7,00.0,32.3,25.3,12.2,0000.0,0001.94,0006.63,0001.01
2022-04-30 05:23:00,,0823.7,5.00,0.00,23.5,22.7,00.0,32.4,25.3,12.1,0000.0,0001.95,0006.30,0001.01
2022-04-30 05:24:00,,0823.7,5.00,0.00,23.5,22.7,00.0,32.4,25.3,12.2,0000.0,0001.96,0006.31,0001.01
2022-04-30 05:25:00,,0823.7,5.01,0.00,23.5,22.7,00.0,32.4,25.3,12.1,0000.0,0001.91,0006.10,0001.00
2022-04-30 05:26:00,,0823.8,5.01,0.00,23.5,22.7,00.0,32.4,25.4,12.1,0000.0,0001.91,0006.05,0001.01
2022-04-30 05:27:00,,0823.8,5.00,0.00,23.5,22.7,00.0,32.4,25.3,12.1,0000.0,0001.83,0005.53,0000.99
2022-04-30 05:28:00,,0823.8,5.00,0.00,23.5,22.7,00.0,32.4,25.3,12.1,0000.0,0001.79,0005.37,0001.00
2022-04-30 05:29:00,,0823.8,5.00,0.00,23.5,22.7,00.0,32.4,25.3,12.1,0000.0,0001.79,0004.78,0000.99
2022-04-30 05:30:00,,0823.8,5.00,0.00,23.5,22.7,00.0,32.4,25.3,12.1,0000.0,0001.80,0004.21,0001.00
2022-04-30 05:31:00,,0823.8,4.99,0.00,23.5,22.7,00.0,32.4,25.3,12.1,0000.0,0001.75,0003.79,0001.00
2022-04-30 05:32:00,,0823.8,5.00,0.00,23.5,22.7,00.0,32.4,25.3,12.1,0000.0,0001.78,0003.96,0001.01
2022-04-30 05:33:00,,0823.8,5.00,0.00,23.5,22.7,00.0,32.4,25.4,12.0,0000.0,0001.83,0004.10,0001.02
2022-04-30 05:34:00,,0823.8,5.00,0.00,23.6,22.8,00.0,32.4,25.4,12.0,0000.0,0001.85,0004.27,0001.02
2022-04-30 05:35:00,,0823.8,5.00,0.00,23.6,22.8,00.0,32.4,25.4,12.0,0000.0,0001.87,0004.59,0001.02
2022-04-30 05:36:00,,0823.8,5.00,0.00,23.6,22.8,00.0,32.4,25.4,12.0,0000.0,0001.97,0005.24,0001.03
2022-04-30 05:37:00,,0823.8,5.00,0.00,23.6,22.8,00.0,32.5,25.4,12.0,0000.0,0002.01,0005.44,0001.03
2022-04-30 05:38:00,,0823.8,5.01,0.00,23.6,22.8,00.0,32.5,25.4,12.0,0000.0,0002.00,0005.31,0001.04
2022-04-30 05:39:00,,0823.8,4.99,0.00,23.6,22.8,00.0,32.5,25.5,12.0,0000.0,0001.99,0005.27,0001.04
2022-04-30 05:40:00,,0823.8,4.99,0.00,23.6,22.8,00.0,32.5,25.5,12.0,0000.0,0002.03,0005.34,0001.04
2022-04-30 05:41:00,,0823.8,5.00,0.00,23.6,22.8,00.0,32.5,25.5,12.0,0000.0,0002.05,0005.48,0001.03
2022-04-30 05:42:00,,0823.8,5.00,0.00,23.6,22.8,00.0,32.5,25.5,11.9,0000.0,0002.07,0005.60,0001.03
2022-04-30 05:43:00,,0823.8,5.01,0.00,23.7,22.8,00.0,32.5,25.5,11.9,0000.0,0002.04,0006.20,0001.02
2022-04-30 05:44:00,,0823.8,4.99,0.00,23.7,22.8,00.0,32.5,25.5,11.9,0000.0,0002.02,0006.48,0001.02
2022-04-30 05:45:00,,0823.8,5.00,0.00,23.7,22.8,00.0,32.5,25.5,11.9,0000.0,0002.02,0006.38,0001.02
2022-04-30 05:46:00,,0823.8,5.00,0.00,23.7,22.8,00.0,32.5,25.5,11.9,0000.0,0002.02,0006.13,0001.02
2022-04-30 05:47:00,,0823.7,4.99,0.00,23.7,22.8,00.0,32.6,25.5,11.9,0000.0,0001.96,0005.66,0001.02
2022-04-30 05:48:00,,0823.7,5.01,0.00,23.7,22.8,00.0,32.6,25.5,11.9,0000.0,0001.99,0006.54,0001.02
2022-04-30 05:49:00,,0823.8,5.01,0.00,23.7,22.8,00.0,32.6,25.5,11.9,0000.0,0002.05,0007.20,0001.01
2022-04-30 05:50:00,,0823.8,4.99,0.00,23.7,22.8,00.0,32.6,25.5,11.9,0000.0,0002.04,0007.84,0001.00
2022-04-30 05:51:00,,0823.8,5.00,0.00,23.7,22.8,00.0,32.6,25.5,12.0,0000.0,0002.02,0007.98,0001.01
2022-04-30 05:52:00,,0823.8,5.00,0.00,23.7,22.8,00.0,32.6,25.5,12.0,0000.0,0002.02,0007.99,0001.03
2022-04-30 05:53:00,,0823.9,4.99,0.00,23.7,22.8,00.0,32.6,25.5,12.0,0000.0,0002.02,0007.94,0001.04
2022-04-30 05:54:00,,0823.8,5.00,0.00,23.7,22.8,00.0,32.6,25.5,12.0,0000.0,0002.03,0007.66,0001.04
2022-04-30 05:55:00,,0823.8,4.99,0.00,23.7,22.8,00.0,32.6,25.5,12.0,0000.0,0002.01,0007.23,0001.03
2022-04-30 05:56:00,,0823.8,5.00,0.00,23.7,22.9,00.0,32.6,25.5,12.0,0000.0,0001.95,0007.40,0001.02
2022-04-30 05:57:00,,0823.9,5.00,0.00,23.7,22.9,00.0,32.6,25.5,12.0,0000.0,0001.90,0007.29,0001.01
2022-04-30 05:58:00,,0823.9,5.00,0.00,23.7,22.8,00.0,32.6,25.4,12.1,0000.0,0001.86,0007.15,0001.00
2022-04-30 05:59:00,,0823.9,5.01,0.00,23.7,22.8,00.0,32.6,25.4,12.0,0000.0,0001.80,0006.01,0000.98
